Zurück zum Katalog

IUS R/B(1)

AktivHEO
NORAD 13971·ROCKET BODY·🇺🇸 United States

Gestartet Apr 4, 1983 von Cape Canaveral Space Force Station

Loading…

Nächste Überflüge (nächste 24 Stunden)

TLE

AktuellSource: Space-Track

Epoche: Sep 14, 2026, 07:51 UTC

1 13971U 83026D   26257.32771335  .00002629  00000-0  71905-3 0  9997
2 13971  25.9151 133.7462 5883199 196.3923 130.8260  4.19710793511231

Verfolge IUS R/B(1) in Echtzeit mit AllMySat

Download on the App Store